Hourly Data Report for October 22, 2013

All times are specified in Local Standard Time (LST). Add 1 hour to adjust for Daylight Saving Time where and when it is observed.

KAMLOOPS A
BRITISH COLUMBIA

50°42'09.000" N
120°26'55.000" W
345.30 m
1163781
71887
YKA

Download Data

Hourly Data (October 2013)
Hourly Data Report for October 22, 2013
Temp Definition
°C
Dew Point Temp Definition
°C
Rel Hum Definition
%
Wind Dir Definition
10's deg

Wind Spd Definition
km/h
Visibility Definition
km
Stn Press Definition
kPa
Hmdx Definition


Wind Chill Definition


Weather Definition


TIME
00:00 Legend Double Dagger 4.6 3.9 95 9 8 1.2 98.24     Fog
01:00 Legend Double Dagger 5.2 4.6 96 5 9 0.4 98.25     Fog
02:00 Legend Double Dagger 5.3 4.7 96 10 6 0.4 98.24     Fog
03:00 Legend Double Dagger 4.8 4.2 96 36 4 0.6 98.28     Fog
04:00 Legend Double Dagger 4.6 4.0 96 4 4 0.6 98.32     Fog
05:00 Legend Double Dagger 4.6 4.2 97 27 4 0.8 98.35     Fog
06:00 Legend Double Dagger 4.7 4.3 97 33 5 0.8 98.35     Fog
07:00 Legend Double Dagger 4.6 4.2 97 32 5 0.6 98.38     Fog
08:00 Legend Double Dagger 4.8 4.4 97 30 1 2.4 98.41     Fog
09:00 Legend Double Dagger 5.4 5.0 97 5 4 4.8 98.38     Fog
10:00 Legend Double Dagger 6.2 5.3 94 8 2 8.1 98.31     Fog
11:00 Legend Double Dagger 6.8 4.8 87 15 4 9.7 98.29     Fog
12:00 Legend Double Dagger 7.4 4.7 83 7 4 16.1 98.26     LegendNANA
13:00 Legend Double Dagger 7.5 4.8 83 13 4 16.1 98.20     Cloudy
14:00 Legend Double Dagger 8.6 5.2 79 18 5 40.2 98.11     LegendNANA
15:00 Legend Double Dagger 9.8 5.4 74 18 4 48.3 98.06     LegendNANA
16:00 Legend Double Dagger 9.7 5.7 76 11 11 48.3 97.98     Clear
17:00 Legend Double Dagger 7.4 4.7 83 32 1 48.3 98.01     LegendNANA
18:00 Legend Double Dagger 6.8 5.1 89 8 17 48.3 98.02     LegendNANA
19:00 Legend Double Dagger 6.2 5.2 93 6 9 16.1 98.05     Mainly Clear
20:00 Legend Double Dagger 6.9 5.7 92 11 6 16.1 98.06     LegendNANA
21:00 Legend Double Dagger 6.8 5.3 90 23 2 9.7 98.11     Fog
22:00 Legend Double Dagger 7.1 5.6 90 8 8 8.1 98.14     Fog
23:00 Legend Double Dagger 6.9 5.5 91 9 5 8.1 98.17     Fog

Notes on Data Quality.

Legend

  • E = Estimated
  • M = Missing
  • NA = Not Available
  • ‡ = Partner data that is not subject to review by the National Climate Archives
Date modified: